Погода в Ленино-Кокушкине

Россия / Республика Татарстан     55°49′30″N   49°41′02″E
темп.,
°C
ветер,
м/с
пор.,
м/с
влажн.,
%
обл.,
%
осадки,
мм/ч
давл.,
гПа
погр.,
м
19 января, ср
ср1900:00−2ююз81596100 0.9 1008666
03:00−2ююз81496100 1.7 1010629
06:00−3ююз71395100 0.6 1011507
09:00−3юз51096100 1.3 1012555
12:00−3зсз3597100 1.2 1013374
15:00−5зсз2397100 2.1 1014187
18:00−7зсз2497100 0.6 1015173
21:00−10з229885 0.8 101611
20 января, чт
чт2000:00−17з1110061 0.1 10189
03:00−19юз2210074 0.1 10199
06:00−15ю249997 0.1 101952
09:00−13ю3999100 0.1 1019166
12:00−10ююз5129378 0.0 1019288
15:00−10ю41195100 0.0 1019220
18:00−12ююз4119761 0.0 1020168
21:00−10ю41299100 0.1 1020227
21 января, пт
пт2100:00−9ю379892 0.1 1020123
03:00−8ю4109593 0.1 1021252
06:00−13ю399894 0.0 1022133
09:00−14ююв389891 0.1 1023149
12:00−11ююв399680 0.0 1023247
15:00−11юв499666 0.1 1023186
18:00−12юв4109695 0.0 1023208
21:00−13юв5129299 0.0 1024228
22 января, сб
сб2200:00−12юв5128993 0.0 1024229
03:00−12юв51289100 0.0 1024253
06:00−13юв51288100 0.0 1024241
09:00−12юв5129396 0.1 1025252
12:00−11юв51191100 0.0 1027297
15:00−10юв51093100 0.0 1027247
18:00−10юв51193100 0.0 1028254
21:00−10юв51194100 0.0 1029250
23 января, вс
вс2300:00−10юв51194100 0.1 1029242
03:00−10юв41094100 0.1 1031237
06:00−11юв41091100 0.0 1032213
09:00−11юв41089100 0.0 1033222
12:00−9юв4987100 0.0 1034253
15:00−8юв4889100 0.0 1036230
18:00−9юв3891100 0.0 1037194
21:00−10ююв2692100 0.0 1038128